Home   Weather   Bantam   Past weeks

Flag for Cocos Islands Past Weather in Bantam, Cocos Islands — Yesterday and Last 2 Weeks

Now
77 °F

Light rain. Mostly cloudy.


Feels Like: 78 °F
Forecast: 78 / 81 °F
Wind: 9 mph from Northeast

Location: Cocos Island Airport

Current Time: Jun 29, 2017 at 1:58:26 pm

Latest Report: Jun 29, 2017 at 1:30 pm


Visibility: 5 mi

Pressure: 29.83 "Hg

Humidity: 89%

Dew Point: 73 °F

Location of BantamLocation

Past Weather in Bantam — Graph

°F

Bantam Temperature Yesterday

Maximum temperature yesterday: 79 °F (at 12:06 am)
Minimum temperature yesterday: 75 °F (at 10:04 am)
Average temperature yesterday: 77 °F

High & Low Weather Summary for the Past Weeks

 TemperatureHumidityPressure
High84 °F (Jun 17, 12:30 pm)100% (Jun 18, 3:00 am)29.98 "Hg (Jun 18, 3:00 am)
Low73 °F (Jun 18, 5:43 am)66% (Jun 14, 4:00 pm)29.83 "Hg (Jun 16, 2:00 pm)
Average79 °F81%29.89 "Hg
* Reported Jun 14 12:30 pm — Jun 29 12:30 pm, Bantam. Weather by CustomWeather, © 2017

Note: Actual official high and low records may vary slightly from our data, if they occured in-between our weather recording intervals... More about our weather records

Advertising

Bantam Weather History for the Previous 24 Hours

Scroll right to see more
 ConditionsComfort  
Time TempWeatherWind HumidityBarometerVisibility
12:30 pm
Thu, Jun 29
75 °FHeavy rain. Cloudy.23 mph94%29.86 "Hg1 mi
12:00 pm77 °FLight rain. Broken clouds.13 mph94%29.86 "Hg4 mi
11:30 am77 °FHeavy rain. Mostly cloudy.15 mph94%29.89 "Hg2 mi
11:00 am79 °FLight rain. More clouds than sun.16 mph89%29.89 "Hg4 mi
10:30 am77 °FLight rain. More clouds than sun.17 mph94%29.86 "Hg4 mi
10:00 am77 °FRain. More clouds than sun.13 mph94%29.89 "Hg3 mi
9:30 am79 °FRain. Broken clouds.18 mph89%29.89 "Hg3 mi
9:00 am79 °FLight rain. More clouds than sun.18 mph89%29.89 "Hg3 mi
8:30 am79 °FRain. Cloudy.17 mph94%29.89 "Hg2 mi
8:11 am77 °FHeavy rain. Cloudy.17 mph94%29.89 "Hg2 mi
7:30 am75 °FRain showers. Broken clouds.16 mph94%29.86 "Hg1 mi
6:30 am75 °FRain. Partly cloudy.20 mph100%29.86 "Hg1 mi
6:08 am77 °FHeavy rain. Overcast.10 mph94%29.86 "Hg2 mi
5:54 am77 °FHeavy rain. Overcast.8 mph94%29.86 "Hg1 mi
5:30 am75 °FRain. Overcast.17 mph94%29.83 "Hg2 mi
5:03 am75 °FLots of rain. Overcast.18 mph100%29.83 "Hg1 mi
4:41 am77 °FRain showers. Mostly cloudy.14 mph94%29.83 "Hg3 mi
4:30 am75 °FLots of rain. Overcast.15 mph94%29.83 "Hg1 mi
4:00 am77 °FRain. Overcast.12 mph94%29.83 "Hg2 mi
3:30 am75 °FHeavy rain. Overcast.20 mph100%29.83 "Hg1 mi
3:00 am77 °FRain. Overcast.17 mph94%29.83 "Hg2 mi
2:30 am77 °FHeavy rain. Overcast.17 mph94%29.86 "Hg2 mi
2:13 am75 °FHeavy rain. Overcast.24 mph100%29.86 "Hg1 mi
1:52 am77 °FLight rain. Partly cloudy.18 mph94%29.86 "Hg4 mi
1:26 am77 °FPartly cloudy.22 mph94%29.86 "Hg6 mi
1:03 am77 °FLight rain. Partly cloudy.20 mph94%29.86 "Hg4 mi
12:38 am77 °FDrizzle. Mostly cloudy.18 mph94%29.86 "HgN/A
12:03 am77 °FSprinkles. Partly cloudy.20 mph94%29.89 "Hg6 mi
11:30 pm
Wed, Jun 28
77 °FPassing clouds.20 mph94%29.89 "Hg6 mi
11:00 pm79 °FPassing clouds.17 mph89%29.89 "HgN/A
10:51 pm79 °FPassing clouds.17 mph89%29.89 "HgN/A
10:30 pm79 °FDrizzle. Mostly cloudy.20 mph84%29.89 "HgN/A
10:14 pm79 °FLight rain. Mostly cloudy.18 mph84%29.89 "HgN/A
9:30 pm79 °FPartly cloudy.18 mph84%29.89 "HgN/A
9:23 pm79 °FLight rain. Partly cloudy.18 mph84%29.89 "HgN/A
9:04 pm79 °FSprinkles. Mostly cloudy.18 mph84%29.89 "HgN/A
8:30 pm77 °FSprinkles. Overcast.17 mph89%29.89 "HgN/A
8:13 pm77 °FSprinkles. Overcast.15 mph89%29.89 "Hg4 mi
7:51 pm77 °FOvercast.20 mph94%29.89 "Hg4 mi
7:38 pm77 °FMostly cloudy.17 mph89%29.89 "Hg3 mi
7:08 pm77 °FSprinkles. Mostly cloudy.17 mph94%29.89 "HgN/A
6:35 pm77 °FSprinkles. Mostly cloudy.22 mph89%29.89 "Hg4 mi
6:08 pm75 °FLight rain. Cloudy.22 mph94%29.89 "Hg4 mi
5:44 pm75 °FLight rain. Mostly cloudy.22 mph94%29.86 "Hg3 mi
5:32 pm75 °FLight rain. Mostly cloudy.23 mph94%29.86 "Hg3 mi
5:04 pm75 °FRain. Mostly cloudy.22 mph94%29.86 "Hg2 mi
4:53 pm75 °FRain. Mostly cloudy.17 mph94%29.86 "Hg2 mi
4:40 pm75 °FHeavy rain. Cloudy.22 mph94%29.86 "Hg1 mi
4:00 pm75 °FHeavy rain. Cloudy.25 mph94%29.86 "Hg1 mi
3:30 pm77 °FRain. Cloudy.22 mph94%29.86 "Hg2 mi
3:00 pm75 °FLots of rain. Mostly cloudy.20 mph100%29.86 "Hg1 mi
2:30 pm75 °FRain showers. More clouds than sun.20 mph100%29.86 "Hg2 mi
2:00 pm75 °FRain showers. More clouds than sun.16 mph100%29.86 "Hg2 mi
1:30 pm77 °FSprinkles. Mostly cloudy.20 mph94%29.86 "Hg3 mi
1:00 pm79 °FScattered showers. Broken clouds.18 mph89%29.86 "HgN/A
Weather by CustomWeather, © 2017

See weather overviewHow to use our weather pages